[TLELIST] Archives

 

[TLELIST] Current TLEs

May 16th 2024 PST

HST 1 20580U 90037B 24136.89540075 .00009329 00000-0 44580-3 0 9995 2 20580 28.4674 201.4170 0002703 54.9499 305.1347 15.17301834672129 ISS (ZARYA) 1 25544U 98067A 24137.32675451 .00020851 00000-0 35451-3 0 9997 2 25544 51.6380 113.3120 0003268 173.0651 328.3848 15.51388706453606 CXO 1 25867U 99040B 24138.77365644 .00000644 00000-0 00000+0 0 9993 2 25867 40.5075 156.6402 8922033 294.4302 359.8066 0.37814091 25609 ...Continue Reading

[TLELIST] Current TLEs

May 15th 2024 PST

HST 1 20580U 90037B 24135.90876623 .00010197 00000-0 48831-3 0 9995 2 20580 28.4674 208.0227 0002647 44.9204 315.1603 15.17286694672239 ISS (ZARYA) 1 25544U 98067A 24136.36125853 .00023642 00000-0 40125-3 0 9991 2 25544 51.6378 118.1084 0003280 171.3474 334.3257 15.51357294453455 CXO 1 25867U 99040B 24138.77365644 .00000644 00000-0 00000+0 0 9993 2 25867 40.5075 156.6402 8922033 294.4302 359.8066 0.37814091 25609 ...Continue Reading

[TLELIST] Current TLEs

May 14th 2024 PST

HST 1 20580U 90037B 24134.59323692 .00008898 00000-0 42526-3 0 9992 2 20580 28.4678 216.8308 0002557 31.1580 328.9163 15.17262657671779 ISS (ZARYA) 1 25544U 98067A 24135.39831887 .00022665 00000-0 38569-3 0 9997 2 25544 51.6380 122.8903 0003403 166.8439 357.4492 15.51308311453304 CXO 1 25867U 99040B 24136.12859698 .00000643 00000-0 00000-0 0 9997 2 25867 40.4499 156.9026 8925978 294.2298 359.7347 0.37810674 14439 ...Continue Reading

[TLELIST] Current TLEs

May 14th 2024 PST

HST 1 20580U 90037B 24134.59323692 .00008898 00000-0 42526-3 0 9992 2 20580 28.4678 216.8308 0002557 31.1580 328.9163 15.17262657671779 ISS (ZARYA) 1 25544U 98067A 24135.39831887 .00022665 00000-0 38569-3 0 9997 2 25544 51.6380 122.8903 0003403 166.8439 357.4492 15.51308311453304 CXO 1 25867U 99040B 24136.12859698 .00000643 00000-0 00000-0 0 9997 2 25867 40.4499 156.9026 8925978 294.2298 359.7347 0.37810674 14439 ...Continue Reading

[TLELIST] Current TLEs

May 13th 2024 PST

HST 1 20580U 90037B 24133.93546526 .00010058 00000-0 48200-3 0 9998 2 20580 28.4678 221.2346 0002503 24.4334 335.6376 15.17253299671676 ISS (ZARYA) 1 25544U 98067A 24134.36607418 .00032166 00000-0 54399-3 0 9990 2 25544 51.6380 128.0115 0002966 160.3223 355.4748 15.51283459453149 CXO 1 25867U 99040B 24136.12859698 .00000643 00000-0 00000-0 0 9997 2 25867 40.4499 156.9026 8925978 294.2298 359.7347 0.37810674 14439 ...Continue Reading

[TLELIST] Current TLEs

May 13th 2024 PST

HST 1 20580U 90037B 24133.93546526 .00010058 00000-0 48200-3 0 9998 2 20580 28.4678 221.2346 0002503 24.4334 335.6376 15.17253299671676 ISS (ZARYA) 1 25544U 98067A 24134.36607418 .00032166 00000-0 54399-3 0 9990 2 25544 51.6380 128.0115 0002966 160.3223 355.4748 15.51283459453149 CXO 1 25867U 99040B 24136.12859698 .00000643 00000-0 00000-0 0 9997 2 25867 40.4499 156.9026 8925978 294.2298 359.7347 0.37810674 14439 ...Continue Reading

[TLELIST] Current TLEs

May 13th 2024 PST

HST 1 20580U 90037B 24133.93546526 .00010058 00000-0 48200-3 0 9998 2 20580 28.4678 221.2346 0002503 24.4334 335.6376 15.17253299671676 ISS (ZARYA) 1 25544U 98067A 24134.36607418 .00032166 00000-0 54399-3 0 9990 2 25544 51.6380 128.0115 0002966 160.3223 355.4748 15.51283459453149 CXO 1 25867U 99040B 24136.12859698 .00000643 00000-0 00000-0 0 9997 2 25867 40.4499 156.9026 8925978 294.2298 359.7347 0.37810674 14439 ...Continue Reading

[TLELIST] Current TLEs

May 12th 2024 PST

HST 1 20580U 90037B 24132.68568539 .00023621 00000-0 11438-2 0 9999 2 20580 28.4680 229.6020 0002410 11.2087 348.8559 15.17223185671485 ISS (ZARYA) 1 25544U 98067A 24133.40046916 .00034078 00000-0 57671-3 0 9994 2 25544 51.6383 132.8068 0003345 161.0373 358.7827 15.51234309452994 CXO 1 25867U 99040B 24133.48325748 .00000624 00000-0 00000+0 0 9995 2 25867 40.3932 157.1734 8928898 294.0177 359.6485 0.37809329 25582 ...Continue Reading

[TLELIST] Current TLEs

May 11th 2024 PST

HST 1 20580U 90037B 24131.69899016 .00009181 00000-0 44017-3 0 9991 2 20580 28.4681 236.2074 0002356 1.0080 359.0517 15.17176780671338 ISS (ZARYA) 1 25544U 98067A 24132.36613887 .00017080 00000-0 29475-3 0 9990 2 25544 51.6381 137.9361 0003535 157.3552 342.5950 15.51115688452831 CXO 1 25867U 99040B 24133.48325748 .00000624 00000-0 00000+0 0 9995 2 25867 40.3932 157.1734 8928898 294.0177 359.6485 0.37809329 25582 ...Continue Reading

[TLELIST] Current TLEs

May 11th 2024 PST

HST 1 20580U 90037B 24131.69899016 .00009181 00000-0 44017-3 0 9991 2 20580 28.4681 236.2074 0002356 1.0080 359.0517 15.17176780671338 ISS (ZARYA) 1 25544U 98067A 24132.36613887 .00017080 00000-0 29475-3 0 9990 2 25544 51.6381 137.9361 0003535 157.3552 342.5950 15.51115688452831 CXO 1 25867U 99040B 24133.48325748 .00000624 00000-0 00000+0 0 9995 2 25867 40.3932 157.1734 8928898 294.0177 359.6485 0.37809329 25582 ...Continue Reading
  • This mailing list is a public mailing list - anyone may join or leave, at any time.
  • This mailing list is announce-only.

International Space Station (ISS) / Hubble Space Telescope (HST) / Chandra X-Ray Observatory Orbital Data via EMAIL

Privacy Policy:

Private list